Le nostre stazioni meteo in Italia

Pubblicità
Il mio iltempo24.it
Venezia/Tessera, Italia (16105): Temperatura & dewpoint: 07.12.2019 23:00:00 - 13.12.2019 23:00:00 (CET)Venezia/Tessera, Italia (16105): velocità del vento: 07.12.2019 23:00:00 - 13.12.2019 23:00:00 (CET)Venezia/Tessera, Italia (16105): direzione del vento: 07.12.2019 23:00:00 - 13.12.2019 23:00:00 (CET)Venezia/Tessera, Italia (16105): reduced air pressure: 07.12.2019 23:00:00 - 13.12.2019 23:00:00 (CET)Venezia/Tessera, Italia (16105): visibility: 07.12.2019 23:00:00 - 13.12.2019 23:00:00 (CET)Venezia/Tessera, Italia (16105): precipitazioni: 07.12.2019 23:00:00 - 13.12.2019 23:00:00 (CET)
Data & Tempo tt [°C] td [°C] ff [km/h] ff [kn] dd ppp [hPa] vv [km] rr [mm]
13.12.2019 23:00:00 3,0 2,0 21 11 O - 10 -
13.12.2019 22:00:00 3,7 2,4 13 7 ONO 988,8 10 0,0
13.12.2019 21:00:00 5,0 3,0 13 7 NO - 9 -
13.12.2019 20:00:00 5,0 4,0 9 5 NNO - 7 -
13.12.2019 19:00:00 4,6 3,5 16 9 NO 985,1 6 -
13.12.2019 18:00:00 5,0 4,0 16 9 NNO - 10 -
13.12.2019 17:00:00 4,0 3,0 22 12 N - 10 -
13.12.2019 16:00:00 4,1 2,9 28 15 N 984,2 8 0,0
13.12.2019 15:00:00 3,0 2,0 31 17 NNE - 7 -
13.12.2019 14:00:00 2,0 2,0 29 16 NE - 7 -
13.12.2019 13:00:00 2,2 1,5 31 17 NNE 987,6 6 -
13.12.2019 12:00:00 3,0 2,0 29 16 NE - 3,5 -
13.12.2019 11:00:00 2,0 2,0 21 11 NNE - 2,5 -
13.12.2019 10:00:00 2,1 1,9 21 11 NNE 993,7 1,5 0,0
13.12.2019 09:00:00 2,0 2,0 11 6 NE - 0,4 -
13.12.2019 08:00:00 1,0 1,0 8 4 NNE - 0,4 -
13.12.2019 07:00:00 1,1 0,8 5 3 NNO 996,9 0,5 -
13.12.2019 06:00:00 1,0 1,0 8 4 NNO - 0,6 -
13.12.2019 05:00:00 1,0 1,0 5 3 N - 0,5 -
13.12.2019 04:00:00 1,2 0,7 4 2 NNE 998,2 1,0 0,0
13.12.2019 03:00:00 2,0 1,0 5 3 O - 9 -
13.12.2019 02:00:00 3,0 2,0 9 5 OSO - 10 -
13.12.2019 01:00:00 2,6 1,7 5 3 ONO 1001,0 10 -
13.12.2019 00:00:00 3,0 2,0 11 6 O - 10 -
12.12.2019 23:00:00 3,0 2,0 8 4 ONO - 7 -
12.12.2019 22:00:00 2,9 2,0 9 5 NO 1002,6 6 0,0
12.12.2019 21:00:00 3,0 2,0 15 8 NNO - 5 -
12.12.2019 20:00:00 3,0 2,0 13 7 NNO - 5 -
12.12.2019 19:00:00 2,7 1,7 15 8 NNO 1003,8 6 -
12.12.2019 18:00:00 3,0 1,0 13 7 N - 10 -
12.12.2019 17:00:00 4,0 1,0 15 8 NNE - 10 -
12.12.2019 16:00:00 3,6 1,7 11 6 N 1004,0 7 0,0
12.12.2019 15:00:00 3,0 1,0 9 5 NO - 10 -
12.12.2019 14:00:00 2,0 1,0 8 4 ONO - 10 -
12.12.2019 13:00:00 2,3 0,4 9 5 NO 1005,4 10 -
12.12.2019 12:00:00 3,0 0,0 15 8 NNE - 10 -
12.12.2019 11:00:00 3,0 -2,0 22 12 NE - 10 -
12.12.2019 10:00:00 2,8 -2,4 18 10 NNE 1006,2 10 0,0
12.12.2019 09:00:00 2,0 -3,0 16 9 NNE - 10 -
12.12.2019 08:00:00 2,0 -4,0 13 7 N - 10 -
12.12.2019 07:00:00 1,2 -4,5 13 7 N 1006,1 10 -
12.12.2019 06:00:00 -1,0 -4,0 9 5 NO - 10 -
12.12.2019 05:00:00 - - - - - - - -
12.12.2019 04:00:00 -1,1 -4,2 9 5 NNE 1006,4 10 0,0
12.12.2019 03:00:00 -1,0 -4,0 8 4 NNE - 10 -
12.12.2019 02:00:00 0,0 -4,0 8 4 N - 10 -
12.12.2019 01:00:00 -0,5 -4,6 5 3 N 1008,0 10 -
12.12.2019 00:00:00 0,0 -4,0 8 4 NNO - 10 -
11.12.2019 23:00:00 1,0 -5,0 5 3 N - 10 -
11.12.2019 22:00:00 0,8 -4,0 5 3 NO 1010,5 10 0,0
11.12.2019 21:00:00 1,0 -4,0 5 3 NE - 10 -
11.12.2019 20:00:00 4,0 -6,0 4 2 - - 10 -
11.12.2019 19:00:00 2,9 -5,5 8 4 NO 1011,7 10 -
11.12.2019 18:00:00 5,0 -6,0 4 2 - - 10 -
11.12.2019 17:00:00 5,0 -5,0 4 2 - - 10 -
11.12.2019 16:00:00 6,9 -5,7 8 4 N 1013,7 10 0,0
11.12.2019 15:00:00 8,0 -5,0 4 2 - - 10 -
11.12.2019 14:00:00 7,0 -5,0 9 5 E - 10 -
11.12.2019 13:00:00 7,0 -4,5 8 4 ENE 1016,2 10 -
11.12.2019 12:00:00 7,0 -5,0 8 4 N - 10 -
11.12.2019 11:00:00 5,0 -6,0 13 7 N - 10 -
11.12.2019 10:00:00 3,8 -5,0 16 9 N 1019,4 10 0,0
11.12.2019 09:00:00 2,0 -5,0 13 7 NNE - 10 -
11.12.2019 08:00:00 1,0 -5,0 16 9 NNE - 10 -
11.12.2019 07:00:00 0,3 -5,4 13 7 NNE 1020,3 10 -
11.12.2019 06:00:00 0,0 -4,0 9 5 NNE - 10 -
11.12.2019 05:00:00 1,0 -5,0 9 5 NNE - 10 -
11.12.2019 04:00:00 1,9 -3,9 11 6 N 1021,0 10 0,0
11.12.2019 03:00:00 2,0 -4,0 16 9 NE - 10 -
11.12.2019 02:00:00 3,0 -3,0 13 7 N - 10 -
11.12.2019 01:00:00 2,9 -2,4 11 6 N 1022,3 10 -
11.12.2019 00:00:00 4,0 -2,0 11 6 N - 10 -
10.12.2019 23:00:00 4,0 -1,0 11 6 NE - 10 -
10.12.2019 22:00:00 4,6 -0,6 15 8 NE 1022,7 10 0,0
10.12.2019 21:00:00 5,0 1,0 11 6 ENE - 10 -
10.12.2019 20:00:00 6,0 2,0 11 6 E - 10 -
10.12.2019 19:00:00 6,3 3,8 13 7 NNE 1021,5 10 -
10.12.2019 18:00:00 8,0 4,0 4 2 NNE - 10 -
10.12.2019 17:00:00 9,0 4,0 4 2 - - 10 -
10.12.2019 16:00:00 10,3 4,5 4 2 - 1018,8 10 0,0
10.12.2019 15:00:00 11,0 4,0 5 3 SSE - 10 -
10.12.2019 14:00:00 11,0 5,0 8 4 SSE - 10 -
10.12.2019 13:00:00 11,8 5,1 5 3 O 1018,0 10 -
10.12.2019 12:00:00 10,0 4,0 4 2 - - 10 -
10.12.2019 11:00:00 8,0 5,0 2 1 - - 10 -
10.12.2019 10:00:00 6,0 3,0 2 1 - 1016,9 10 0,0
10.12.2019 09:00:00 3,0 1,0 5 3 ONO - 10 -
10.12.2019 08:00:00 2,0 1,0 5 3 NO - 10 -
10.12.2019 07:00:00 1,8 0,7 8 4 NO 1014,2 8 -
10.12.2019 06:00:00 2,0 1,0 11 6 NNO - 6 -
10.12.2019 05:00:00 2,0 1,0 9 5 NO - 5 -
10.12.2019 04:00:00 2,4 1,6 8 4 NO 1011,6 4,0 0,0
10.12.2019 03:00:00 2,0 1,0 9 5 NNO - 3,0 -
10.12.2019 02:00:00 2,0 2,0 8 4 N - 3,0 -
10.12.2019 01:00:00 3,0 2,4 4 2 - 1009,9 2,0 -
10.12.2019 00:00:00 3,0 2,0 8 4 NO - 2,5 -
09.12.2019 23:00:00 4,0 3,0 4 2 - - 3,5 -
09.12.2019 22:00:00 5,0 4,2 4 2 - 1008,2 4,0 0,0
09.12.2019 21:00:00 5,0 4,0 4 2 - - 5 -
09.12.2019 20:00:00 6,0 4,0 8 4 ONO - 7 -
09.12.2019 19:00:00 6,4 4,4 9 5 NO 1007,4 8 -
09.12.2019 18:00:00 7,0 5,0 8 4 O - 10 -
09.12.2019 17:00:00 7,0 5,0 8 4 SO - 8 -
09.12.2019 16:00:00 8,5 5,0 4 2 - 1006,5 7 0,0
09.12.2019 15:00:00 8,0 5,0 11 6 NNO - 6 -
09.12.2019 14:00:00 8,0 5,0 8 4 NNO - 6 -
09.12.2019 13:00:00 7,9 5,3 9 5 N 1007,4 5 -
09.12.2019 12:00:00 8,0 5,0 8 4 N - 5 -
09.12.2019 11:00:00 8,0 5,0 9 5 NNE - 5 -
09.12.2019 10:00:00 7,2 4,9 11 6 NNE 1009,4 5 0,0
09.12.2019 09:00:00 7,0 5,0 5 3 NNE - 5 -
09.12.2019 08:00:00 6,0 4,0 8 4 N - 6 -
09.12.2019 07:00:00 5,7 4,6 2 1 - 1010,3 6 -
09.12.2019 06:00:00 6,0 4,0 5 3 NNE - 3,0 -
09.12.2019 05:00:00 6,0 5,0 5 3 N - 3,0 -
09.12.2019 04:00:00 6,0 4,7 5 3 NO 1012,5 3,0 0,0
09.12.2019 03:00:00 6,0 5,0 4 2 NNO - 3,0 -
09.12.2019 02:00:00 6,0 5,0 4 2 - - 3,0 -
09.12.2019 01:00:00 6,5 4,6 5 3 NNE 1014,5 3,0 -
09.12.2019 00:00:00 7,0 5,0 8 4 N - 3,0 -
08.12.2019 23:00:00 7,0 5,0 8 4 NNO - 3,0 -
08.12.2019 22:00:00 7,0 4,8 4 2 - 1016,8 3,0 0,0
08.12.2019 21:00:00 7,0 5,0 5 3 N - 2,5 -
08.12.2019 20:00:00 7,0 5,0 5 3 NO - 2,5 -
08.12.2019 19:00:00 7,1 4,6 5 3 NO 1018,2 3,5 -
08.12.2019 18:00:00 6,0 5,0 9 5 SSO - 4,0 -
08.12.2019 17:00:00 7,0 5,0 4 2 S - 5 -
08.12.2019 16:00:00 8,4 5,2 4 2 SSO 1018,7 6 0,0
08.12.2019 15:00:00 9,0 4,0 8 4 SSO - 10 -
08.12.2019 14:00:00 9,0 4,0 8 4 SSO - 10 -
08.12.2019 13:00:00 8,9 3,6 5 3 SO 1020,2 10 -
08.12.2019 12:00:00 8,0 4,0 4 2 - - 9 -
08.12.2019 11:00:00 7,0 3,0 5 3 SSO - 10 -
08.12.2019 10:00:00 5,0 1,8 4 2 - 1021,9 10 0,0
08.12.2019 09:00:00 2,0 1,0 5 3 ONO - 10 -
08.12.2019 08:00:00 2,0 1,0 8 4 ONO - 7 -
08.12.2019 07:00:00 1,3 0,4 5 3 ONO 1021,2 8 -
08.12.2019 06:00:00 2,0 1,0 5 3 O - 8 -
08.12.2019 05:00:00 2,0 1,0 4 2 NNE - 8 -
08.12.2019 04:00:00 2,9 1,4 5 3 NNO 1021,2 8 0,0
08.12.2019 03:00:00 2,0 1,0 5 3 NNO - 8 -
08.12.2019 02:00:00 3,0 2,0 8 4 NO - 6 -
08.12.2019 01:00:00 3,2 2,1 11 6 NNO 1021,5 6 -
08.12.2019 00:00:00 3,0 2,0 5 3 NNO - 6 -
07.12.2019 23:00:00 4,0 3,0 5 3 NNO - 6 -

tt = Temperatura
td = dewpoint
ff = velocità del vento
dd = direzione del vento
ppp = reduced air pressure
vv = visibility
rr = precipitazioni

Stazioni seguenti

WeatherPro
AMSI
MeteoEarth